JBU1062 KPBI-KLGA

Flight info

Callsign JBU1062
Flight time N/A
Altitude 35000
Route SLIDZ3 LENDS GRUBR Y299 SEELO GARIC Q107 HURTS PROUD2
Aircraft A320/M-SDE3GHIJ3J4J7M3P2RWZ/LB1D1

Departure

Time N/A
Airport Palm Beach International Airport (KPBI)

Arrival

Time 2026-05-05 17:15
Airport LaGuardia Airport (KLGA)
Time Latitude Longitude Altitude Speed Heading
2026-05-05 16:56 40.21262 -74.48100 8874 ft 327 kts 44°
2026-05-05 16:56 40.22896 -74.45997 8735 ft 325 kts 42°
2026-05-05 16:56 40.24537 -74.43957 8595 ft 325 kts 41°
2026-05-05 16:56 40.26168 -74.41952 8444 ft 323 kts 41°
2026-05-05 16:57 40.27808 -74.39924 8311 ft 322 kts 42°
2026-05-05 16:57 40.29404 -74.37928 8173 ft 321 kts 42°
2026-05-05 16:57 40.31010 -74.35903 8052 ft 320 kts 42°
2026-05-05 16:57 40.32601 -74.33893 7917 ft 317 kts 42°
2026-05-05 16:58 40.34183 -74.31885 7779 ft 316 kts 42°
2026-05-05 16:58 40.35758 -74.29885 7643 ft 314 kts 42°
2026-05-05 16:58 40.37329 -74.27892 7502 ft 313 kts 42°
2026-05-05 16:58 40.38890 -74.25910 7341 ft 312 kts 43°
2026-05-05 16:59 40.40447 -74.23929 7183 ft 311 kts 43°
2026-05-05 16:59 40.41999 -74.21957 6971 ft 310 kts 42°
2026-05-05 16:59 40.43545 -74.19992 6777 ft 308 kts 43°
2026-05-05 16:59 40.45076 -74.18043 6576 ft 306 kts 43°
2026-05-05 17:00 40.46600 -74.16101 6386 ft 304 kts 43°
2026-05-05 17:00 40.48115 -74.14165 6193 ft 303 kts 43°
2026-05-05 17:00 40.49615 -74.12249 5991 ft 303 kts 43°
2026-05-05 17:00 40.51122 -74.10328 5825 ft 301 kts 41°
2026-05-05 17:01 40.52753 -74.08631 5677 ft 298 kts 30°
2026-05-05 17:01 40.54496 -74.07171 5531 ft 297 kts 29°
2026-05-05 17:01 40.56237 -74.05703 5396 ft 296 kts 30°
2026-05-05 17:01 40.57959 -74.04241 5274 ft 296 kts 30°
2026-05-05 17:02 40.59685 -74.02774 5145 ft 295 kts 30°
2026-05-05 17:02 40.61347 -74.01364 5025 ft 295 kts 30°
2026-05-05 17:02 40.63068 -73.99909 4895 ft 294 kts 30°
2026-05-05 17:02 40.64795 -73.98454 4778 ft 294 kts 30°
2026-05-05 17:03 40.66519 -73.97003 4654 ft 294 kts 30°
2026-05-05 17:03 40.68246 -73.95551 4549 ft 294 kts 29°
2026-05-05 17:03 40.69967 -73.94168 4453 ft 292 kts 21°
2026-05-05 17:03 40.71914 -73.93585 4351 ft 279 kts 354°
2026-05-05 17:04 40.73813 -73.93769 4225 ft 276 kts 348°
2026-05-05 17:04 40.75700 -73.94057 4115 ft 269 kts 347°
2026-05-05 17:04 40.77533 -73.94346 3860 ft 260 kts 347°
2026-05-05 17:04 40.79294 -73.94610 3612 ft 249 kts 347°
2026-05-05 17:05 40.80980 -73.94850 3360 ft 238 kts 348°
2026-05-05 17:05 40.82583 -73.95082 3157 ft 225 kts 347°
2026-05-05 17:05 40.84096 -73.95293 2994 ft 212 kts 347°
2026-05-05 17:05 40.85553 -73.95248 2818 ft 212 kts 12°
2026-05-05 17:06 40.86885 -73.94410 2710 ft 213 kts 25°
2026-05-05 17:06 40.88146 -73.93401 2526 ft 211 kts 27°
2026-05-05 17:06 40.89390 -73.92366 2361 ft 210 kts 27°
2026-05-05 17:06 40.90627 -73.91339 2244 ft 210 kts 28°
2026-05-05 17:07 40.91876 -73.90331 2123 ft 208 kts 27°
2026-05-05 17:07 40.93106 -73.89344 2043 ft 206 kts 27°
2026-05-05 17:07 40.94342 -73.88378 1965 ft 206 kts 27°
2026-05-05 17:07 40.95575 -73.87431 1997 ft 206 kts 27°
2026-05-05 17:08 40.96809 -73.86463 1963 ft 205 kts 33°
2026-05-05 17:08 40.97691 -73.85012 1970 ft 207 kts 71°
2026-05-05 17:08 40.97976 -73.83143 1998 ft 208 kts 86°
2026-05-05 17:08 40.97943 -73.81285 1976 ft 197 kts 110°
2026-05-05 17:09 40.97503 -73.79576 1990 ft 196 kts 116°
2026-05-05 17:09 40.97023 -73.77973 1984 ft 195 kts 117°
2026-05-05 17:09 40.96429 -73.76384 1974 ft 189 kts 137°
2026-05-05 17:09 40.95399 -73.75391 1997 ft 181 kts 161°
2026-05-05 17:10 40.94203 -73.75000 1999 ft 175 kts 183°
2026-05-05 17:10 40.92997 -73.75213 1983 ft 174 kts 195°
2026-05-05 17:10 40.91938 -73.75955 2007 ft 173 kts 213°
2026-05-05 17:10 40.90918 -73.76809 1996 ft 173 kts 214°
2026-05-05 17:11 40.89906 -73.77650 1990 ft 171 kts 214°
2026-05-05 17:11 40.88898 -73.78488 2001 ft 171 kts 213°
2026-05-05 17:11 40.87899 -73.79316 1975 ft 164 kts 215°
2026-05-05 17:11 40.86991 -73.80067 1896 ft 148 kts 214°
2026-05-05 17:12 40.86150 -73.80764 1732 ft 140 kts 214°
2026-05-05 17:12 40.85361 -73.81419 1575 ft 135 kts 214°
2026-05-05 17:12 40.84561 -73.82084 1399 ft 138 kts 214°
2026-05-05 17:12 40.83760 -73.82747 1188 ft 136 kts 215°
2026-05-05 17:13 40.83233 -73.83184 1055 ft 133 kts 213°
2026-05-05 17:13 40.82438 -73.83842 897 ft 135 kts 213°
2026-05-05 17:13 40.81649 -73.84507 743 ft 133 kts 211°
2026-05-05 17:13 40.80848 -73.85164 557 ft 141 kts 210°
2026-05-05 17:14 40.80028 -73.85839 368 ft 140 kts 210°
2026-05-05 17:14 40.79226 -73.86504 192 ft 133 kts 206°
2026-05-05 17:14 40.78441 -73.87157 39 ft 133 kts 207°
2026-05-05 17:14 40.77777 -73.87704 23 ft 75 kts 212°
2026-05-05 17:15 40.77509 -73.87925 25 ft 34 kts 212°
2026-05-05 17:15 40.77370 -73.87993 21 ft 13 kts 186°
2026-05-05 17:15 40.77317 -73.87998 20 ft 3 kts 182°
2026-05-05 17:15 40.77296 -73.87972 20 ft 6 kts 87°
2026-05-05 17:16 40.77337 -73.87918 22 ft 10 kts 33°
2026-05-05 17:16 40.77403 -73.87862 20 ft 12 kts 32°
2026-05-05 17:16 40.77481 -73.87798 21 ft 12 kts 32°
2026-05-05 17:16 40.77527 -73.87760 21 ft 7 kts 32°
2026-05-05 17:17 40.77577 -73.87719 21 ft 10 kts 31°
2026-05-05 17:17 40.77610 -73.87643 21 ft 12 kts 98°
2026-05-05 17:17 40.77564 -73.87584 20 ft 10 kts 148°
2026-05-05 17:17 40.77501 -73.87522 20 ft 10 kts 133°
2026-05-05 17:18 40.77475 -73.87439 20 ft 9 kts 99°
2026-05-05 17:18 40.77450 -73.87351 21 ft 12 kts 128°
2026-05-05 17:18 40.77428 -73.87262 20 ft 11 kts 96°
2026-05-05 17:18 40.77401 -73.87161 20 ft 11 kts 122°
2026-05-05 17:19 40.77347 -73.87083 20 ft 12 kts 133°
2026-05-05 17:19 40.77304 -73.87022 21 ft 7 kts 132°
2026-05-05 17:19 40.77286 -73.86966 20 ft 7 kts 68°
2026-05-05 17:19 40.77310 -73.86932 21 ft 2 kts 40°
2026-05-05 17:20 40.77314 -73.86928 20 ft 0 kts 40°